Year,Month,Day,Hour,Minute,Value (Times are PST for temperature in C)
2023,03,28,00,00,5.20
2023,03,28,00,01,5.20
2023,03,28,00,02,5.20
2023,03,28,00,03,5.30
2023,03,28,00,04,5.30
2023,03,28,00,05,5.30
2023,03,28,00,06,5.30
2023,03,28,00,07,5.30
2023,03,28,00,08,5.30
2023,03,28,00,09,5.30
2023,03,28,00,10,5.30
2023,03,28,00,11,5.30
2023,03,28,00,12,5.30
2023,03,28,00,13,5.30
2023,03,28,00,14,5.30
2023,03,28,00,15,5.40
2023,03,28,00,16,5.40
2023,03,28,00,17,5.40
2023,03,28,00,18,5.40
2023,03,28,00,19,5.40
2023,03,28,00,20,5.40
2023,03,28,00,21,5.40
2023,03,28,00,22,5.40
2023,03,28,00,23,5.40
2023,03,28,00,24,5.40
2023,03,28,00,25,5.40
2023,03,28,00,26,5.40
2023,03,28,00,27,5.40
2023,03,28,00,28,5.40
2023,03,28,00,29,5.40
2023,03,28,00,30,5.40
2023,03,28,00,31,5.40
2023,03,28,00,32,5.40
2023,03,28,00,33,5.40
2023,03,28,00,34,5.40
2023,03,28,00,35,5.40
2023,03,28,00,36,5.40
2023,03,28,00,37,5.50
2023,03,28,00,38,5.50
2023,03,28,00,39,5.50
2023,03,28,00,40,5.50
2023,03,28,00,41,5.50
2023,03,28,00,42,5.50
2023,03,28,00,43,5.50
2023,03,28,00,44,5.50
2023,03,28,00,45,5.50
2023,03,28,00,46,5.50
2023,03,28,00,47,5.50
2023,03,28,00,48,5.50
2023,03,28,00,49,5.60
2023,03,28,00,50,5.60
2023,03,28,00,51,5.60
2023,03,28,00,52,5.60
2023,03,28,00,53,5.60
2023,03,28,00,54,5.60
2023,03,28,00,55,5.60
2023,03,28,00,56,5.60
2023,03,28,00,57,5.60
2023,03,28,00,58,5.60
2023,03,28,00,59,5.60
2023,03,28,01,00,5.60
2023,03,28,01,01,5.70
2023,03,28,01,02,5.70
2023,03,28,01,03,5.70
2023,03,28,01,04,5.70
2023,03,28,01,05,5.70
2023,03,28,01,06,5.70
2023,03,28,01,07,5.70
2023,03,28,01,08,5.70
2023,03,28,01,09,5.70
2023,03,28,01,10,5.70
2023,03,28,01,11,5.70
2023,03,28,01,12,5.70
2023,03,28,01,13,5.70
2023,03,28,01,14,5.70
2023,03,28,01,15,5.70
2023,03,28,01,16,5.70
2023,03,28,01,17,5.80
2023,03,28,01,18,5.80
2023,03,28,01,19,5.80
2023,03,28,01,20,5.80
2023,03,28,01,21,5.80
2023,03,28,01,22,5.80
2023,03,28,01,23,5.80
2023,03,28,01,24,5.80
2023,03,28,01,25,5.80
2023,03,28,01,26,5.80
2023,03,28,01,27,5.80
2023,03,28,01,28,5.80
2023,03,28,01,29,5.80
2023,03,28,01,30,5.80
2023,03,28,01,31,5.80
2023,03,28,01,32,5.70
2023,03,28,01,33,5.80
2023,03,28,01,34,5.80
2023,03,28,01,35,5.80
2023,03,28,01,36,5.80
2023,03,28,01,37,5.80
2023,03,28,01,38,5.80
2023,03,28,01,39,5.80
2023,03,28,01,40,5.80
2023,03,28,01,41,5.80
2023,03,28,01,42,5.80
2023,03,28,01,43,5.80
2023,03,28,01,44,5.80
2023,03,28,01,45,5.80
2023,03,28,01,46,5.90
2023,03,28,01,47,5.90
2023,03,28,01,48,5.80
2023,03,28,01,49,5.80
2023,03,28,01,50,5.80
2023,03,28,01,51,5.80
2023,03,28,01,52,5.80
2023,03,28,01,53,5.80
2023,03,28,01,54,5.80
2023,03,28,01,55,5.80
2023,03,28,01,56,5.80
2023,03,28,01,57,5.80
2023,03,28,01,58,5.80
2023,03,28,01,59,5.80
2023,03,28,02,00,5.80
2023,03,28,02,01,5.80
2023,03,28,02,02,5.80
2023,03,28,02,03,5.80
2023,03,28,02,04,5.80
2023,03,28,02,05,5.80
2023,03,28,02,06,5.80
2023,03,28,02,07,5.80
2023,03,28,02,08,5.80
2023,03,28,02,09,5.80
2023,03,28,02,10,5.80
2023,03,28,02,11,5.80
2023,03,28,02,12,5.80
2023,03,28,02,13,5.80
2023,03,28,02,14,5.80
2023,03,28,02,15,5.80
2023,03,28,02,16,5.80
2023,03,28,02,17,5.80
2023,03,28,02,18,5.70
2023,03,28,02,19,5.80
2023,03,28,02,20,5.80
2023,03,28,02,21,5.80
2023,03,28,02,22,5.80
2023,03,28,02,23,5.80
2023,03,28,02,24,5.80
2023,03,28,02,25,5.80
2023,03,28,02,26,5.80
2023,03,28,02,27,5.80
2023,03,28,02,28,5.70
2023,03,28,02,29,5.70
2023,03,28,02,30,5.70
2023,03,28,02,31,5.70
2023,03,28,02,32,5.70
2023,03,28,02,33,5.70
2023,03,28,02,34,5.70
2023,03,28,02,35,5.70
2023,03,28,02,36,5.70
2023,03,28,02,37,5.70
2023,03,28,02,38,5.70
2023,03,28,02,39,5.70
2023,03,28,02,40,5.70
2023,03,28,02,41,5.70
2023,03,28,02,42,5.70
2023,03,28,02,43,5.70
2023,03,28,02,44,5.70
2023,03,28,02,45,5.70
2023,03,28,02,46,5.70
2023,03,28,02,47,5.70
2023,03,28,02,48,5.70
2023,03,28,02,49,5.60
2023,03,28,02,50,5.70
2023,03,28,02,51,5.70
2023,03,28,02,52,5.70
2023,03,28,02,53,5.70
2023,03,28,02,54,5.70
2023,03,28,02,55,5.70
2023,03,28,02,56,5.80
2023,03,28,02,57,5.80
2023,03,28,02,58,5.80
2023,03,28,02,59,5.80
2023,03,28,03,00,5.80
2023,03,28,03,01,5.90
2023,03,28,03,02,5.90
2023,03,28,03,03,5.90
2023,03,28,03,04,5.90
2023,03,28,03,05,5.90
2023,03,28,03,06,5.90
2023,03,28,03,07,5.90
2023,03,28,03,08,5.90
2023,03,28,03,09,5.90
2023,03,28,03,10,5.90
2023,03,28,03,11,5.90
2023,03,28,03,12,6.00
2023,03,28,03,13,6.10
2023,03,28,03,14,6.10
2023,03,28,03,15,6.20
2023,03,28,03,16,6.20
2023,03,28,03,17,6.30
2023,03,28,03,18,6.40
2023,03,28,03,19,6.40
2023,03,28,03,20,6.50
2023,03,28,03,21,6.50
2023,03,28,03,22,6.60
2023,03,28,03,23,6.70
2023,03,28,03,24,6.70
2023,03,28,03,25,6.70
2023,03,28,03,26,6.80
2023,03,28,03,27,6.80
2023,03,28,03,28,6.90
2023,03,28,03,29,6.90
2023,03,28,03,30,6.90
2023,03,28,03,31,6.90
2023,03,28,03,32,7.00
2023,03,28,03,33,7.00
2023,03,28,03,34,7.00
2023,03,28,03,35,7.10
2023,03,28,03,36,7.10
2023,03,28,03,37,7.10
2023,03,28,03,38,7.20
2023,03,28,03,39,7.20
2023,03,28,03,40,7.20
2023,03,28,03,41,7.20
2023,03,28,03,42,7.30
2023,03,28,03,43,7.30
2023,03,28,03,44,7.30
2023,03,28,03,45,7.30
2023,03,28,03,46,7.30
2023,03,28,03,47,7.30
2023,03,28,03,48,7.40
2023,03,28,03,49,7.40
2023,03,28,03,50,7.40
2023,03,28,03,51,7.40
2023,03,28,03,52,7.40
2023,03,28,03,53,7.40
2023,03,28,03,54,7.40
2023,03,28,03,55,7.40
2023,03,28,03,56,7.40
2023,03,28,03,57,7.40
2023,03,28,03,58,7.50
2023,03,28,03,59,7.50
2023,03,28,04,00,7.50
2023,03,28,04,01,7.50
2023,03,28,04,02,7.50
2023,03,28,04,03,7.50
2023,03,28,04,04,7.50
2023,03,28,04,05,7.50
2023,03,28,04,06,7.60
2023,03,28,04,07,7.60
2023,03,28,04,08,7.60
2023,03,28,04,09,7.60
2023,03,28,04,10,7.60
2023,03,28,04,11,7.60
2023,03,28,04,12,7.60
2023,03,28,04,13,7.70
2023,03,28,04,14,7.70
2023,03,28,04,15,7.70
2023,03,28,04,16,7.70
2023,03,28,04,17,7.70
2023,03,28,04,18,7.70
2023,03,28,04,19,7.70
2023,03,28,04,20,7.70
2023,03,28,04,21,7.70
2023,03,28,04,22,7.70
2023,03,28,04,23,7.70
2023,03,28,04,24,7.80
2023,03,28,04,25,7.80
2023,03,28,04,26,7.80
2023,03,28,04,27,7.80
2023,03,28,04,28,7.70
2023,03,28,04,29,7.70
2023,03,28,04,30,7.80
2023,03,28,04,31,7.80
2023,03,28,04,32,7.80
2023,03,28,04,33,7.80
2023,03,28,04,34,7.80
2023,03,28,04,35,7.80
2023,03,28,04,36,7.80
2023,03,28,04,37,7.80
2023,03,28,04,38,7.80
2023,03,28,04,39,7.80
2023,03,28,04,40,7.80
2023,03,28,04,41,7.80
2023,03,28,04,42,7.80
2023,03,28,04,43,7.80
2023,03,28,04,44,7.80
2023,03,28,04,45,7.80
2023,03,28,04,46,7.80
2023,03,28,04,47,7.80
2023,03,28,04,48,7.80
2023,03,28,04,49,7.80
2023,03,28,04,50,7.80
2023,03,28,04,51,7.80
2023,03,28,04,52,7.80
2023,03,28,04,53,7.80
2023,03,28,04,54,7.80
2023,03,28,04,55,7.80
2023,03,28,04,56,7.80
2023,03,28,04,57,7.80
2023,03,28,04,58,7.80
2023,03,28,04,59,7.80
2023,03,28,05,00,7.80
2023,03,28,05,01,7.80
2023,03,28,05,02,7.80
2023,03,28,05,03,7.70
2023,03,28,05,04,7.70
2023,03,28,05,05,7.70
2023,03,28,05,06,7.70
2023,03,28,05,07,7.70
2023,03,28,05,08,7.70
2023,03,28,05,09,7.70
2023,03,28,05,10,7.70
2023,03,28,05,11,7.70
2023,03,28,05,12,7.70
2023,03,28,05,13,7.70
2023,03,28,05,14,7.70
2023,03,28,05,15,7.70
2023,03,28,05,16,7.70
2023,03,28,05,17,7.70
2023,03,28,05,18,7.70
2023,03,28,05,19,7.70
2023,03,28,05,20,7.70
2023,03,28,05,21,7.70
2023,03,28,05,22,7.70
2023,03,28,05,23,7.70
2023,03,28,05,24,7.70
2023,03,28,05,25,7.70
2023,03,28,05,26,7.70
2023,03,28,05,27,7.70
2023,03,28,05,28,7.70
2023,03,28,05,29,7.70
2023,03,28,05,30,7.70
2023,03,28,05,31,7.70
2023,03,28,05,32,7.70
2023,03,28,05,33,7.70
2023,03,28,05,34,7.70
2023,03,28,05,35,7.70
2023,03,28,05,36,7.70
2023,03,28,05,37,7.80
2023,03,28,05,38,7.80
2023,03,28,05,39,7.80
2023,03,28,05,40,7.80
2023,03,28,05,41,7.80
2023,03,28,05,42,7.80
2023,03,28,05,43,7.80
2023,03,28,05,44,7.80
2023,03,28,05,45,7.80
2023,03,28,05,46,7.80
2023,03,28,05,47,7.80
2023,03,28,05,48,7.80
2023,03,28,05,49,7.80
2023,03,28,05,50,7.80
2023,03,28,05,51,7.80
2023,03,28,05,52,7.80
2023,03,28,05,53,7.80
2023,03,28,05,54,7.80
2023,03,28,05,55,7.80
2023,03,28,05,56,7.80
2023,03,28,05,57,7.80
2023,03,28,05,58,7.80
2023,03,28,05,59,7.70
2023,03,28,06,00,7.70
2023,03,28,06,01,7.70
2023,03,28,06,02,7.70
2023,03,28,06,03,7.70
2023,03,28,06,04,7.70
2023,03,28,06,05,7.70
2023,03,28,06,06,7.70
2023,03,28,06,07,7.70
2023,03,28,06,08,7.70
2023,03,28,06,09,7.70
2023,03,28,06,10,7.70
2023,03,28,06,11,7.70
2023,03,28,06,12,7.70
2023,03,28,06,13,7.70
2023,03,28,06,14,7.70
2023,03,28,06,15,7.70
2023,03,28,06,16,7.70
2023,03,28,06,17,7.70
2023,03,28,06,18,7.70
2023,03,28,06,19,7.70
2023,03,28,06,20,7.70
2023,03,28,06,21,7.60
2023,03,28,06,22,7.60
2023,03,28,06,23,7.60
2023,03,28,06,24,7.60
2023,03,28,06,25,7.60
2023,03,28,06,26,7.60
2023,03,28,06,27,7.60
2023,03,28,06,28,7.60
2023,03,28,06,29,7.60
2023,03,28,06,30,7.60
2023,03,28,06,31,7.60
2023,03,28,06,32,7.60
2023,03,28,06,33,7.60
2023,03,28,06,34,7.60
2023,03,28,06,35,7.60
2023,03,28,06,36,7.50
2023,03,28,06,37,7.50
2023,03,28,06,38,7.50
2023,03,28,06,39,7.50
2023,03,28,06,40,7.50
2023,03,28,06,41,7.50
2023,03,28,06,42,7.50
2023,03,28,06,43,7.50
2023,03,28,06,44,7.50
2023,03,28,06,45,7.50
2023,03,28,06,46,7.50
2023,03,28,06,47,7.50
2023,03,28,06,48,7.50
2023,03,28,06,49,7.50
2023,03,28,06,50,7.50
2023,03,28,06,51,7.50
2023,03,28,06,52,7.40
2023,03,28,06,53,7.50
2023,03,28,06,54,7.40
2023,03,28,06,55,7.40
2023,03,28,06,56,7.40
2023,03,28,06,57,7.40
2023,03,28,06,58,7.40
2023,03,28,06,59,7.40
2023,03,28,07,00,7.40
2023,03,28,07,01,7.40
2023,03,28,07,02,7.40
2023,03,28,07,03,7.40
2023,03,28,07,04,7.40
2023,03,28,07,05,7.40
2023,03,28,07,06,7.40
2023,03,28,07,07,7.50
2023,03,28,07,08,7.50
2023,03,28,07,09,7.50
2023,03,28,07,10,7.50
2023,03,28,07,11,7.50
2023,03,28,07,12,7.50
2023,03,28,07,13,7.50
2023,03,28,07,14,7.60
2023,03,28,07,15,7.60
2023,03,28,07,16,7.60
2023,03,28,07,17,7.60
2023,03,28,07,18,7.70
2023,03,28,07,19,7.70
2023,03,28,07,20,7.70
2023,03,28,07,21,7.70
2023,03,28,07,22,7.70
2023,03,28,07,23,7.70
2023,03,28,07,24,7.80
2023,03,28,07,25,7.80
2023,03,28,07,26,7.80
2023,03,28,07,27,7.80
2023,03,28,07,28,7.80
2023,03,28,07,29,7.80
2023,03,28,07,30,7.80
2023,03,28,07,31,7.90
2023,03,28,07,32,7.80
2023,03,28,07,33,7.90
2023,03,28,07,34,7.90
2023,03,28,07,35,7.90
2023,03,28,07,36,7.90
2023,03,28,07,37,7.90
2023,03,28,07,38,7.90
2023,03,28,07,39,7.90
2023,03,28,07,40,7.90
2023,03,28,07,41,8.00
2023,03,28,07,42,8.00
2023,03,28,07,43,8.00
2023,03,28,07,44,8.00
2023,03,28,07,45,8.00
2023,03,28,07,46,8.00
2023,03,28,07,47,8.00
2023,03,28,07,48,8.10
2023,03,28,07,49,8.10
2023,03,28,07,50,8.10
2023,03,28,07,51,8.10
2023,03,28,07,52,8.10
2023,03,28,07,53,8.20
2023,03,28,07,54,8.20
2023,03,28,07,55,8.20
2023,03,28,07,56,8.20
2023,03,28,07,57,8.20
2023,03,28,07,58,8.20
2023,03,28,07,59,8.20
2023,03,28,08,00,8.30
2023,03,28,08,01,8.30
2023,03,28,08,02,8.30
2023,03,28,08,03,8.30
2023,03,28,08,04,8.30
2023,03,28,08,05,8.30
2023,03,28,08,06,8.40
2023,03,28,08,07,8.40
2023,03,28,08,08,8.50
2023,03,28,08,09,8.60
2023,03,28,08,10,8.60
2023,03,28,08,11,8.70
2023,03,28,08,12,8.70
2023,03,28,08,13,8.70
2023,03,28,08,14,8.70
2023,03,28,08,15,8.70
2023,03,28,08,16,8.80
2023,03,28,08,17,8.80
2023,03,28,08,18,8.80
2023,03,28,08,19,8.80
2023,03,28,08,20,8.80
2023,03,28,08,21,8.80
2023,03,28,08,22,8.90
2023,03,28,08,23,8.90
2023,03,28,08,24,8.90
2023,03,28,08,25,8.90
2023,03,28,08,26,9.00
2023,03,28,08,27,9.00
2023,03,28,08,28,9.00
2023,03,28,08,29,9.10
2023,03,28,08,30,9.10
2023,03,28,08,31,9.10
2023,03,28,08,32,9.20
2023,03,28,08,33,9.20
2023,03,28,08,34,9.20
2023,03,28,08,35,9.20
2023,03,28,08,36,9.20
2023,03,28,08,37,9.20
2023,03,28,08,38,9.20
2023,03,28,08,39,9.20
2023,03,28,08,40,9.20
2023,03,28,08,41,9.20
2023,03,28,08,42,9.20
2023,03,28,08,43,9.30
2023,03,28,08,44,9.30
2023,03,28,08,45,9.30
2023,03,28,08,46,9.30
2023,03,28,08,47,9.40
2023,03,28,08,48,9.40
2023,03,28,08,49,9.40
2023,03,28,08,50,9.50
2023,03,28,08,51,9.50
2023,03,28,08,52,9.60
2023,03,28,08,53,9.60
2023,03,28,08,54,9.70
2023,03,28,08,55,9.70
2023,03,28,08,56,9.80
2023,03,28,08,57,9.80
2023,03,28,08,58,9.80
2023,03,28,08,59,9.80
2023,03,28,09,00,9.80
2023,03,28,09,01,9.80
2023,03,28,09,02,9.90
2023,03,28,09,03,9.90
2023,03,28,09,04,9.90
2023,03,28,09,05,9.90
2023,03,28,09,06,9.90
2023,03,28,09,07,10.00
2023,03,28,09,08,10.00
2023,03,28,09,09,10.00
2023,03,28,09,10,10.10
2023,03,28,09,11,10.10
2023,03,28,09,12,10.10
2023,03,28,09,13,10.10
2023,03,28,09,14,10.10
2023,03,28,09,15,10.10
2023,03,28,09,16,10.20
2023,03,28,09,17,10.20
2023,03,28,09,18,10.20
2023,03,28,09,19,10.20
2023,03,28,09,20,10.30
2023,03,28,09,21,10.30
2023,03,28,09,22,10.30
2023,03,28,09,23,10.30
2023,03,28,09,24,10.30
2023,03,28,09,25,10.30
2023,03,28,09,26,10.30
2023,03,28,09,27,10.30
2023,03,28,09,28,10.30
2023,03,28,09,29,10.30
2023,03,28,09,30,10.30
2023,03,28,09,31,10.30
2023,03,28,09,32,10.30
2023,03,28,09,33,10.30
2023,03,28,09,34,10.40
2023,03,28,09,35,10.40
2023,03,28,09,36,10.40
2023,03,28,09,37,10.40
2023,03,28,09,38,10.40
2023,03,28,09,39,10.40
2023,03,28,09,40,10.50
2023,03,28,09,41,10.50
2023,03,28,09,42,10.50
2023,03,28,09,43,10.60
2023,03,28,09,44,10.60
2023,03,28,09,45,10.60
2023,03,28,09,46,10.60
2023,03,28,09,47,10.70
2023,03,28,09,48,10.70
2023,03,28,09,49,10.70
2023,03,28,09,50,10.70
2023,03,28,09,51,10.80
2023,03,28,09,52,10.80
2023,03,28,09,53,10.90
2023,03,28,09,54,10.90
2023,03,28,09,55,10.90
2023,03,28,09,56,11.00
2023,03,28,09,57,11.00
2023,03,28,09,58,11.00
2023,03,28,09,59,11.00
2023,03,28,10,00,11.10
2023,03,28,10,01,11.10
2023,03,28,10,02,11.10
2023,03,28,10,03,11.10
2023,03,28,10,04,11.20
2023,03,28,10,05,11.20
2023,03,28,10,06,11.20
2023,03,28,10,07,11.20
2023,03,28,10,08,11.20
2023,03,28,10,09,11.30
2023,03,28,10,10,11.30
2023,03,28,10,11,11.30
2023,03,28,10,12,11.30
2023,03,28,10,13,11.40
2023,03,28,10,14,11.40
2023,03,28,10,15,11.40
2023,03,28,10,16,11.40
2023,03,28,10,17,11.50
2023,03,28,10,18,11.50
2023,03,28,10,19,11.60
2023,03,28,10,20,11.60
2023,03,28,10,21,11.60
2023,03,28,10,22,11.60
2023,03,28,10,23,11.70
2023,03,28,10,24,11.70
2023,03,28,10,25,11.70
2023,03,28,10,26,11.80
2023,03,28,10,27,11.80
2023,03,28,10,28,11.80
2023,03,28,10,29,11.90
2023,03,28,10,30,11.90
2023,03,28,10,31,11.90
2023,03,28,10,32,11.90
2023,03,28,10,33,11.90
2023,03,28,10,34,12.00
2023,03,28,10,35,12.00
2023,03,28,10,36,12.00
2023,03,28,10,37,12.10
2023,03,28,10,38,12.10
2023,03,28,10,39,12.10
2023,03,28,10,40,12.10
2023,03,28,10,41,12.10
2023,03,28,10,42,12.10
2023,03,28,10,43,12.20
2023,03,28,10,44,12.20
2023,03,28,10,45,12.20
2023,03,28,10,46,12.20
2023,03,28,10,47,12.20
2023,03,28,10,48,12.20
2023,03,28,10,49,12.20
2023,03,28,10,50,12.20
2023,03,28,10,51,12.20
2023,03,28,10,52,12.30
2023,03,28,10,53,12.30
2023,03,28,10,54,12.30
2023,03,28,10,55,12.40
2023,03,28,10,56,12.40
2023,03,28,10,57,12.40
2023,03,28,10,58,12.50
2023,03,28,10,59,12.50
2023,03,28,11,00,12.60
2023,03,28,11,01,12.60
2023,03,28,11,02,12.60
2023,03,28,11,03,12.70
2023,03,28,11,04,12.70
2023,03,28,11,05,12.70
2023,03,28,11,06,12.80
2023,03,28,11,07,12.80
2023,03,28,11,08,12.80
2023,03,28,11,09,12.80
2023,03,28,11,10,12.80
2023,03,28,11,11,12.80
2023,03,28,11,12,12.80
2023,03,28,11,13,12.80
2023,03,28,11,14,12.90
2023,03,28,11,15,12.90
2023,03,28,11,16,12.90
2023,03,28,11,17,12.90
2023,03,28,11,18,12.90
2023,03,28,11,19,13.00
2023,03,28,11,20,13.00
2023,03,28,11,21,13.00
2023,03,28,11,22,13.00
2023,03,28,11,23,13.00
2023,03,28,11,24,13.10
2023,03,28,11,25,13.10
2023,03,28,11,26,13.10
2023,03,28,11,27,13.20
2023,03,28,11,28,13.20
2023,03,28,11,29,13.20
2023,03,28,11,30,13.20
2023,03,28,11,31,13.20
2023,03,28,11,32,13.30
2023,03,28,11,33,13.30
2023,03,28,11,34,13.30
2023,03,28,11,35,13.30
2023,03,28,11,36,13.30
2023,03,28,11,37,13.30
2023,03,28,11,38,13.30
2023,03,28,11,39,13.30
2023,03,28,11,40,13.30
2023,03,28,11,41,13.30
2023,03,28,11,42,13.30
2023,03,28,11,43,13.40
2023,03,28,11,44,13.40
2023,03,28,11,45,13.40
2023,03,28,11,46,13.40
2023,03,28,11,47,13.50
2023,03,28,11,48,13.50
2023,03,28,11,49,13.60
2023,03,28,11,50,13.60
2023,03,28,11,51,13.60
2023,03,28,11,52,13.70
2023,03,28,11,53,13.70
2023,03,28,11,54,13.70
2023,03,28,11,55,13.70
2023,03,28,11,56,13.80
2023,03,28,11,57,13.80
2023,03,28,11,58,13.80
2023,03,28,11,59,13.80
2023,03,28,12,00,13.90
2023,03,28,12,01,13.90
2023,03,28,12,02,13.90
2023,03,28,12,03,13.90
2023,03,28,12,04,13.90
2023,03,28,12,05,13.90
2023,03,28,12,06,13.90
2023,03,28,12,07,13.80
2023,03,28,12,08,13.80
2023,03,28,12,09,13.90
2023,03,28,12,10,13.90
2023,03,28,12,11,13.90
2023,03,28,12,12,13.90
2023,03,28,12,13,13.90
2023,03,28,12,14,14.00
2023,03,28,12,15,14.00
2023,03,28,12,16,14.00
2023,03,28,12,17,14.00
2023,03,28,12,18,14.00
2023,03,28,12,19,14.00
2023,03,28,12,20,14.00
2023,03,28,12,21,14.00
2023,03,28,12,22,14.00
2023,03,28,12,23,13.90
2023,03,28,12,24,13.90
2023,03,28,12,25,13.90
2023,03,28,12,26,13.90
2023,03,28,12,27,13.90
2023,03,28,12,28,13.90
2023,03,28,12,29,14.00
2023,03,28,12,30,14.00
2023,03,28,12,31,14.00
2023,03,28,12,32,14.00
2023,03,28,12,33,14.10
2023,03,28,12,34,14.10
2023,03,28,12,35,14.10
2023,03,28,12,36,14.10
2023,03,28,12,37,14.10
2023,03,28,12,38,14.10
2023,03,28,12,39,14.10
2023,03,28,12,40,14.20
2023,03,28,12,41,14.20
2023,03,28,12,42,14.30
2023,03,28,12,43,14.30
2023,03,28,12,44,14.30
2023,03,28,12,45,14.30
2023,03,28,12,46,14.30
2023,03,28,12,47,14.40
2023,03,28,12,48,14.40
2023,03,28,12,49,14.40
2023,03,28,12,50,14.40
2023,03,28,12,51,14.40
2023,03,28,12,52,14.40
2023,03,28,12,53,14.30
2023,03,28,12,54,14.30
2023,03,28,12,55,14.30
2023,03,28,12,56,14.30
2023,03,28,12,57,14.40
2023,03,28,12,58,14.40
2023,03,28,12,59,14.40
2023,03,28,13,00,14.40
2023,03,28,13,01,14.40
2023,03,28,13,02,14.40
2023,03,28,13,03,14.50
2023,03,28,13,04,14.50
2023,03,28,13,05,14.50
2023,03,28,13,06,14.50
2023,03,28,13,07,14.50
2023,03,28,13,08,14.50
2023,03,28,13,09,14.50
2023,03,28,13,10,14.50
2023,03,28,13,11,14.50
2023,03,28,13,12,14.50
2023,03,28,13,13,14.50
2023,03,28,13,14,14.50
2023,03,28,13,15,14.50
2023,03,28,13,16,14.50
2023,03,28,13,17,14.50
2023,03,28,13,18,14.50
2023,03,28,13,19,14.50
2023,03,28,13,20,14.40
2023,03,28,13,21,14.40
2023,03,28,13,22,14.40
2023,03,28,13,23,14.30
2023,03,28,13,24,14.30
2023,03,28,13,25,14.30
2023,03,28,13,26,14.30
2023,03,28,13,27,14.30
2023,03,28,13,28,14.30
2023,03,28,13,29,14.30
2023,03,28,13,30,14.20
2023,03,28,13,31,14.20
2023,03,28,13,32,14.10
2023,03,28,13,33,14.10
2023,03,28,13,34,14.00
2023,03,28,13,35,14.00
2023,03,28,13,36,14.00
2023,03,28,13,37,13.90
2023,03,28,13,38,13.90
2023,03,28,13,39,13.90
2023,03,28,13,40,13.90
2023,03,28,13,41,13.90
2023,03,28,13,42,13.90
2023,03,28,13,43,13.90
2023,03,28,13,44,13.90
2023,03,28,13,45,13.90
2023,03,28,13,46,14.00
2023,03,28,13,47,14.00
2023,03,28,13,48,14.10
2023,03,28,13,49,14.10
2023,03,28,13,50,14.10
2023,03,28,13,51,14.20
2023,03,28,13,52,14.20
2023,03,28,13,53,14.30
2023,03,28,13,54,14.40
2023,03,28,13,55,14.50
2023,03,28,13,56,14.60
2023,03,28,13,57,14.60
2023,03,28,13,58,14.70
2023,03,28,13,59,14.80
2023,03,28,14,00,14.80
2023,03,28,14,01,14.80
2023,03,28,14,02,14.80
2023,03,28,14,03,14.90
2023,03,28,14,04,14.80
2023,03,28,14,05,14.80
2023,03,28,14,06,14.80
2023,03,28,14,07,14.80
2023,03,28,14,08,14.70
2023,03,28,14,09,14.70
2023,03,28,14,10,14.60
2023,03,28,14,11,14.60
2023,03,28,14,12,14.60
2023,03,28,14,13,14.50
2023,03,28,14,14,14.50
2023,03,28,14,15,14.60
2023,03,28,14,16,14.60
2023,03,28,14,17,14.60
2023,03,28,14,18,14.70
2023,03,28,14,19,14.80
2023,03,28,14,20,14.90
2023,03,28,14,21,14.90
2023,03,28,14,22,15.00
2023,03,28,14,23,15.00
2023,03,28,14,24,15.10
2023,03,28,14,25,15.10
2023,03,28,14,26,15.20
2023,03,28,14,27,15.20
2023,03,28,14,28,15.20
2023,03,28,14,29,15.30
2023,03,28,14,30,15.30
2023,03,28,14,31,15.20
2023,03,28,14,32,15.20
2023,03,28,14,33,15.20
2023,03,28,14,34,15.20
2023,03,28,14,35,15.10
2023,03,28,14,36,15.10
2023,03,28,14,37,15.00
2023,03,28,14,38,15.00
2023,03,28,14,39,14.90
2023,03,28,14,40,14.80
2023,03,28,14,41,14.70
2023,03,28,14,42,14.60
2023,03,28,14,43,14.50
2023,03,28,14,44,14.30
2023,03,28,14,45,14.20
2023,03,28,14,46,14.10
2023,03,28,14,47,14.10
2023,03,28,14,48,14.00
2023,03,28,14,49,14.00
2023,03,28,14,50,14.00
2023,03,28,14,51,14.00
2023,03,28,14,52,14.00
2023,03,28,14,53,14.10
2023,03,28,14,54,14.20
2023,03,28,14,55,14.30
2023,03,28,14,56,14.30
2023,03,28,14,57,14.40
2023,03,28,14,58,14.50
2023,03,28,14,59,14.50
2023,03,28,15,00,14.60
2023,03,28,15,01,14.70
2023,03,28,15,02,14.80
2023,03,28,15,03,14.80
2023,03,28,15,04,14.90
2023,03,28,15,05,14.90
2023,03,28,15,06,15.00
2023,03,28,15,07,15.00
2023,03,28,15,08,15.00
2023,03,28,15,09,15.00
2023,03,28,15,10,15.00
2023,03,28,15,11,15.00
2023,03,28,15,12,15.10
2023,03,28,15,13,15.10
2023,03,28,15,14,15.10
2023,03,28,15,15,15.10
2023,03,28,15,16,15.10
2023,03,28,15,17,15.20
2023,03,28,15,18,15.20
2023,03,28,15,19,15.20
2023,03,28,15,20,15.10
2023,03,28,15,21,15.10
2023,03,28,15,22,15.00
2023,03,28,15,23,15.00
2023,03,28,15,24,14.90
2023,03,28,15,25,14.80
2023,03,28,15,26,14.70
2023,03,28,15,27,14.50
2023,03,28,15,28,14.40
2023,03,28,15,29,14.30
2023,03,28,15,30,14.20
2023,03,28,15,31,14.10
2023,03,28,15,32,14.00
2023,03,28,15,33,14.00
2023,03,28,15,34,13.90
2023,03,28,15,35,13.90
2023,03,28,15,36,13.90
2023,03,28,15,37,13.90
2023,03,28,15,38,13.90
2023,03,28,15,39,13.90
2023,03,28,15,40,13.90
2023,03,28,15,41,13.90
2023,03,28,15,42,13.90
2023,03,28,15,43,14.00
2023,03,28,15,44,14.00
2023,03,28,15,45,14.10
2023,03,28,15,46,14.10
2023,03,28,15,47,14.10
2023,03,28,15,48,14.20
2023,03,28,15,49,14.20
2023,03,28,15,50,14.30
2023,03,28,15,51,14.30
2023,03,28,15,52,14.40
2023,03,28,15,53,14.50
2023,03,28,15,54,14.50
2023,03,28,15,55,14.60
2023,03,28,15,56,14.60
2023,03,28,15,57,14.70
2023,03,28,15,58,14.80
2023,03,28,15,59,14.80
2023,03,28,16,00,14.90
2023,03,28,16,01,14.90
2023,03,28,16,02,15.00
2023,03,28,16,03,15.00
2023,03,28,16,04,15.00
2023,03,28,16,05,15.00
2023,03,28,16,06,15.00
2023,03,28,16,07,15.00
2023,03,28,16,08,15.00
2023,03,28,16,09,15.10
2023,03,28,16,10,15.00
2023,03,28,16,11,15.00
2023,03,28,16,12,15.00
2023,03,28,16,13,15.00
2023,03,28,16,14,15.00
2023,03,28,16,15,15.00
2023,03,28,16,16,15.10
2023,03,28,16,17,15.10
2023,03,28,16,18,15.10
2023,03,28,16,19,15.10
2023,03,28,16,20,15.10
2023,03,28,16,21,15.20
2023,03,28,16,22,15.20
2023,03,28,16,23,15.30
2023,03,28,16,24,15.30
2023,03,28,16,25,15.30
2023,03,28,16,26,15.40
2023,03,28,16,27,15.50
2023,03,28,16,28,15.50
2023,03,28,16,29,15.50
2023,03,28,16,30,15.50
2023,03,28,16,31,15.50
2023,03,28,16,32,15.50
2023,03,28,16,33,15.40
2023,03,28,16,34,15.40
2023,03,28,16,35,15.30
2023,03,28,16,36,15.20
2023,03,28,16,37,15.10
2023,03,28,16,38,15.10
2023,03,28,16,39,15.00
2023,03,28,16,40,14.90
2023,03,28,16,41,14.90
2023,03,28,16,42,14.80
2023,03,28,16,43,14.80
2023,03,28,16,44,14.80
2023,03,28,16,45,14.80
2023,03,28,16,46,14.80
2023,03,28,16,47,14.80
2023,03,28,16,48,14.80
2023,03,28,16,49,14.80
2023,03,28,16,50,14.80
2023,03,28,16,51,14.80
2023,03,28,16,52,14.90
2023,03,28,16,53,14.90
2023,03,28,16,54,14.90
2023,03,28,16,55,14.90
2023,03,28,16,56,14.90
2023,03,28,16,57,14.90
2023,03,28,16,58,14.90
2023,03,28,16,59,14.90
2023,03,28,17,00,14.90
2023,03,28,17,01,14.90
2023,03,28,17,02,14.90
2023,03,28,17,03,15.00
2023,03,28,17,04,15.00
2023,03,28,17,05,15.00
2023,03,28,17,06,15.10
2023,03,28,17,07,15.10
2023,03,28,17,08,15.10
2023,03,28,17,09,15.10
2023,03,28,17,10,15.10
2023,03,28,17,11,15.20
2023,03,28,17,12,15.20
2023,03,28,17,13,15.20
2023,03,28,17,14,15.20
2023,03,28,17,15,15.20
2023,03,28,17,16,15.10
2023,03,28,17,17,15.10
2023,03,28,17,18,15.10
2023,03,28,17,19,15.00
2023,03,28,17,20,15.00
2023,03,28,17,21,14.90
2023,03,28,17,22,14.80
2023,03,28,17,23,14.70
2023,03,28,17,24,14.70
2023,03,28,17,25,14.60
2023,03,28,17,26,14.60
2023,03,28,17,27,14.50
2023,03,28,17,28,14.40
2023,03,28,17,29,14.40
2023,03,28,17,30,14.30
2023,03,28,17,31,14.30
2023,03,28,17,32,14.20
2023,03,28,17,33,14.10
2023,03,28,17,34,14.10
2023,03,28,17,35,14.10
2023,03,28,17,36,14.10
2023,03,28,17,37,14.10
2023,03,28,17,38,14.00
2023,03,28,17,39,14.00
2023,03,28,17,40,14.00
2023,03,28,17,41,13.90
2023,03,28,17,42,13.90
2023,03,28,17,43,13.80